TimeEST,TemperatureF,Dew PointF,Humidity,Sea Level PressureIn,VisibilityMPH,Wind Direction,Wind SpeedMPH,Gust SpeedMPH,PrecipitationIn,Events,Conditions,WindDirDegrees,DateUTC
12:12 AM,14.9,12.9,92,30.13,5.0,SSW,4.6,-,N/A,Snow,Light Snow,200,2014-02-09 05:12:00
12:32 AM,14.9,12.7,91,30.13,5.0,Calm,Calm,-,N/A,Snow,Light Snow,0,2014-02-09 05:32:00
12:52 AM,14.7,12.7,92,30.12,7.0,South,3.5,-,N/A,,Overcast,190,2014-02-09 05:52:00
1:12 AM,14.4,12.2,91,30.12,7.0,SSW,3.5,-,N/A,,Overcast,200,2014-02-09 06:12:00
1:32 AM,14.2,12.2,92,30.11,7.0,SSW,3.5,-,N/A,,Overcast,210,2014-02-09 06:32:00
1:52 AM,14.4,12.6,93,30.10,5.0,Calm,Calm,-,N/A,,Overcast,0,2014-02-09 06:52:00
2:15 AM,14.0,12.2,93,30.10,5.0,Calm,Calm,-,N/A,Snow,Light Snow,0,2014-02-09 07:15:00
2:35 AM,14.0,12.2,93,30.11,5.0,Calm,Calm,-,N/A,Snow,Light Snow,0,2014-02-09 07:35:00
2:55 AM,14.4,12.6,93,30.09,5.0,Calm,Calm,-,N/A,Snow,Light Snow,0,2014-02-09 07:55:00
3:15 AM,14.0,12.2,93,30.09,5.0,Calm,Calm,-,N/A,Snow,Light Snow,0,2014-02-09 08:15:00
3:35 AM,14.0,12.2,93,30.08,5.0,Calm,Calm,-,N/A,Snow,Light Snow,0,2014-02-09 08:35:00
3:55 AM,13.8,12.2,93,30.07,5.0,Calm,Calm,-,N/A,Snow,Light Snow,0,2014-02-09 08:55:00
4:15 AM,13.8,12.2,93,30.06,7.0,Calm,Calm,-,N/A,,Overcast,0,2014-02-09 09:15:00
4:35 AM,14.0,12.4,93,30.08,7.0,SSW,3.5,-,N/A,Snow,Light Snow,200,2014-02-09 09:35:00
4:55 AM,14.0,12.4,93,30.07,4.0,Calm,Calm,-,N/A,Snow,Light Snow,0,2014-02-09 09:55:00
5:15 AM,14.0,12.4,93,30.08,4.0,Calm,Calm,-,N/A,Snow,Light Snow,0,2014-02-09 10:15:00
5:30 AM,14.0,12.4,93,30.07,2.5,Calm,Calm,-,N/A,Snow,Light Snow,0,2014-02-09 10:30:00
5:53 AM,14.0,12.4,93,30.05,2.0,Calm,Calm,-,N/A,Snow,Light Snow,0,2014-02-09 10:53:00
6:13 AM,14.0,12.6,94,30.07,3.0,Calm,Calm,-,N/A,Snow,Light Snow,0,2014-02-09 11:13:00
6:33 AM,14.0,12.2,93,30.06,3.0,Calm,Calm,-,N/A,Snow,Light Snow,0,2014-02-09 11:33:00
6:53 AM,14.0,12.2,93,30.06,3.0,Calm,Calm,-,N/A,Snow,Light Snow,0,2014-02-09 11:53:00
7:13 AM,14.0,12.2,93,30.06,1.2,SSE,3.5,-,N/A,Snow,Snow,160,2014-02-09 12:13:00
7:33 AM,13.8,12.2,93,30.05,2.5,Calm,Calm,-,N/A,Snow,Light Snow,0,2014-02-09 12:33:00
7:53 AM,13.8,12.2,93,30.05,2.5,Calm,Calm,-,N/A,Snow,Light Snow,0,2014-02-09 12:53:00
8:14 AM,13.6,12.0,93,30.04,1.8,Calm,Calm,-,N/A,Snow,Light Snow,0,2014-02-09 13:14:00
8:34 AM,13.6,12.0,93,30.05,1.2,Calm,Calm,-,N/A,Snow,Light Snow,0,2014-02-09 13:34:00
8:54 AM,13.8,12.0,93,30.05,2.5,Calm,Calm,-,N/A,Snow,Light Snow,0,2014-02-09 13:54:00
9:14 AM,14.4,12.2,91,30.05,2.0,Calm,Calm,-,N/A,Snow,Light Snow,0,2014-02-09 14:14:00
9:31 AM,14.4,12.0,90,30.05,1.2,South,3.5,-,N/A,Snow,Light Snow,190,2014-02-09 14:31:00
9:51 AM,14.7,12.2,90,30.05,0.8,Calm,Calm,-,N/A,Snow,Light Snow,0,2014-02-09 14:51:00
10:11 AM,15.4,12.2,87,30.05,0.8,Calm,Calm,-,N/A,Snow,Light Snow,0,2014-02-09 15:11:00
10:31 AM,15.6,12.0,86,30.04,0.8,Calm,Calm,-,N/A,Snow,Light Snow,0,2014-02-09 15:31:00
10:51 AM,15.3,11.8,86,30.04,2.5,Calm,Calm,-,N/A,Snow,Light Snow,0,2014-02-09 15:51:00
11:11 AM,16.0,12.2,85,30.04,1.8,Calm,Calm,-,N/A,Snow,Light Snow,0,2014-02-09 16:11:00
11:32 AM,16.7,12.6,84,30.04,4.0,South,3.5,-,N/A,Snow,Light Snow,170,2014-02-09 16:32:00
11:52 AM,17.6,13.1,83,30.03,5.0,Calm,Calm,-,N/A,,Overcast,0,2014-02-09 16:52:00
12:12 PM,17.8,13.1,82,30.03,5.0,Calm,Calm,-,N/A,Snow,Light Snow,0,2014-02-09 17:12:00
12:32 PM,17.6,13.1,83,30.03,7.0,Calm,Calm,-,N/A,,Scattered Clouds,0,2014-02-09 17:32:00
12:54 PM,17.6,13.1,83,30.02,5.0,Calm,Calm,-,N/A,Snow,Light Snow,0,2014-02-09 17:54:00
1:14 PM,19.2,13.8,80,30.02,7.0,Calm,Calm,-,N/A,,Overcast,0,2014-02-09 18:14:00
1:34 PM,21.2,13.8,73,30.02,7.0,West,3.5,-,N/A,,Overcast,260,2014-02-09 18:34:00
1:54 PM,22.1,14.2,72,30.01,10.0,West,4.6,-,N/A,,Overcast,270,2014-02-09 18:54:00
2:15 PM,22.1,14.4,72,30.01,7.0,WNW,8.1,-,N/A,Snow,Light Snow,290,2014-02-09 19:15:00
2:35 PM,23.0,13.5,67,30.01,10.0,West,9.2,-,N/A,,Overcast,260,2014-02-09 19:35:00
2:55 PM,23.0,12.9,65,30.01,10.0,WNW,10.4,-,N/A,,Overcast,300,2014-02-09 19:55:00
3:15 PM,24.1,12.9,62,30.01,10.0,WNW,10.4,-,N/A,,Overcast,290,2014-02-09 20:15:00
3:35 PM,23.0,13.8,68,30.01,7.0,West,9.2,-,N/A,,Overcast,270,2014-02-09 20:35:00
3:55 PM,23.2,14.0,68,30.01,10.0,WNW,6.9,-,N/A,,Overcast,290,2014-02-09 20:55:00
4:15 PM,22.8,14.2,69,30.02,7.0,West,10.4,-,N/A,Snow,Light Snow,270,2014-02-09 21:15:00
4:30 PM,22.8,14.2,69,30.03,10.0,West,5.8,-,N/A,,Overcast,280,2014-02-09 21:30:00
4:52 PM,22.8,13.1,66,30.03,7.0,WNW,9.2,-,N/A,Snow,Light Snow,300,2014-02-09 21:52:00
5:13 PM,22.1,13.6,70,30.04,10.0,West,6.9,-,N/A,,Overcast,280,2014-02-09 22:13:00
5:33 PM,21.7,13.6,71,30.05,10.0,West,6.9,-,N/A,,Overcast,260,2014-02-09 22:33:00
5:53 PM,21.6,16.2,80,30.06,10.0,West,6.9,-,N/A,,Overcast,270,2014-02-09 22:53:00
6:13 PM,20.8,16.2,82,30.07,10.0,WSW,5.8,-,N/A,,Overcast,250,2014-02-09 23:13:00
6:33 PM,20.7,15.8,81,30.08,10.0,West,6.9,-,N/A,,Overcast,260,2014-02-09 23:33:00
6:53 PM,21.0,16.7,83,30.09,4.0,West,10.4,-,N/A,Snow,Light Snow,260,2014-02-09 23:53:00
7:13 PM,20.3,18.1,91,30.10,3.0,WSW,5.8,-,N/A,Snow,Light Snow,250,2014-02-10 00:13:00
7:33 PM,20.3,18.1,91,30.10,7.0,WSW,6.9,-,N/A,Snow,Light Snow,250,2014-02-10 00:33:00
7:53 PM,19.9,17.8,91,30.10,5.0,WSW,6.9,-,N/A,Snow,Light Snow,250,2014-02-10 00:53:00
8:14 PM,19.8,17.4,91,30.11,10.0,WSW,5.8,-,N/A,,Overcast,250,2014-02-10 01:14:00
8:31 PM,19.8,16.9,89,30.11,10.0,West,5.8,-,N/A,,Overcast,260,2014-02-10 01:31:00
8:51 PM,19.4,16.2,87,30.12,10.0,West,8.1,-,N/A,,Overcast,270,2014-02-10 01:51:00
9:11 PM,19.2,16.7,90,30.12,4.0,West,5.8,-,N/A,Snow,Light Snow,270,2014-02-10 02:11:00
9:31 PM,19.0,16.0,88,30.13,10.0,West,8.1,-,N/A,,Overcast,280,2014-02-10 02:31:00
9:51 PM,18.7,14.0,82,30.14,10.0,WNW,8.1,-,N/A,,Overcast,290,2014-02-10 02:51:00
10:12 PM,18.5,13.8,82,30.14,10.0,WNW,5.8,-,N/A,,Overcast,290,2014-02-10 03:12:00
10:32 PM,18.1,12.9,80,30.14,10.0,WNW,5.8,-,N/A,,Overcast,300,2014-02-10 03:32:00
10:52 PM,17.4,11.8,79,30.14,10.0,WNW,4.6,-,N/A,,Overcast,300,2014-02-10 03:52:00
11:12 PM,15.1,10.4,82,30.14,10.0,WNW,4.6,-,N/A,,Overcast,290,2014-02-10 04:12:00
11:32 PM,14.2,10.6,86,30.15,10.0,West,3.5,-,N/A,,Overcast,260,2014-02-10 04:32:00
11:52 PM,10.9,8.4,90,30.14,10.0,West,3.5,-,N/A,,Mostly Cloudy,260,2014-02-10 04:52:00